Location: Aixovall
(42.4760°N, 1.4902°E)
Time: 16:54:24
(UTC+00:00)

Resurs 01 Rocket - Visible Passes

Search period start: 13 November 2025 00:00
Search period end: 23 November 2025 00:00
Orbit: 628 x 635 km, 97.7° (Epoch: 13 November)

Date Brightness Start Highest point End Pass type
(mag) Time Alt. Az. Time Alt. Az. Time Alt. Az.
13 Nov 4.0 18:58:47 14° N 18:58:47 14° N 18:59:22 10° N visible
14 Nov 4.3 19:20:03 11° NNW 19:20:03 11° NNW 19:20:15 10° NNW visible
16 Nov 4.0 18:25:07 11° N 18:25:07 11° N 18:25:15 10° N visible
17 Nov 4.2 18:46:22 10° N 18:46:22 10° N 18:46:24 10° N visible
